Weather History for Fort Lauderdale, FL

Change the Weather History Date:

Saturday, July 13, 2013

  Actual Average Record
Temperature  
Mean Temperature 78 °F -  
Max Temperature 86 °F 92 °F 99 °F (1981)
Min Temperature 73 °F 74 °F 67 °F (1954)
Cooling Degree Days 14    
Growing Degree Days 28 (Base 50)    
Moisture  
Dew Point 73 °F    
Average Humidity 91    
Maximum Humidity 100    
Minimum Humidity 67    
Precipitation  
Precipitation 0.64 in - - ()
Sea Level Pressure  
Sea Level Pressure 29.99 in    
Wind  
Wind Speed 5 mph (South)    
Max Wind Speed 14 mph    
Max Gust Speed 24 mph    
Visibility 8 miles    
Events Rain , Thunderstorm    
Averages and records for this station are not official NWS values.
T = Trace of Precipitation, MM = Missing Value Source: NWS Daily Summary

Daily Weather History Graph

Daily Weather History Graph

Search for Another Location

Airport:

Trip Planner

Search our weather history database for the weather conditions in past years. The results will help you decide how hot, cold, wet, or windy it might be!

Date:

Astronomy

Jul. 13, 2013 Rise Set
Actual Time 6:37 AM EDT 8:15 PM EDT
Civil Twilight 6:11 AM EDT 8:41 PM EDT
Nautical Twilight 5:40 AM EDT 9:12 PM EDT
Astronomical Twilight 5:08 AM EDT 9:44 PM EDT
Moon 11:17 AM EDT (7/13) 11:33 PM EDT (7/13)
Length of Visible Light 14h 30m
Length of Day
13h 38m
Waxing Crescent, 25% of the Moon is Illuminated
Jul 13
Waxing Crescent
Jul 15
First Quarter
Jul 22
Full
Jul 29
Last Quarter
Aug 6
New

Hourly Weather History & Observations

Time (EDT) Temp. Heat Index Dew Point Humidity Pressure Visibility Wind Dir Wind Speed Gust Speed Precip Events Conditions
12:53 AM 79.0 °F - 70.0 °F 74% 29.97 in 10.0 mi ESE 9.2 mph - N/A   Scattered Clouds
1:53 AM 78.1 °F - 70.0 °F 76% 29.96 in 10.0 mi South 4.6 mph - 0.00 in   Scattered Clouds
3:53 AM 78.1 °F - 73.9 °F 87% 29.94 in 10.0 mi South 6.9 mph - N/A   Clear
4:53 AM 77.0 °F - 73.0 °F 88% 29.94 in 10.0 mi South 3.5 mph - N/A   Scattered Clouds
5:53 AM 77.0 °F - 73.0 °F 88% 29.94 in 10.0 mi Calm Calm - N/A   Clear
6:53 AM 77.0 °F - 73.0 °F 88% 29.96 in 10.0 mi Calm Calm - N/A   Scattered Clouds
10:53 AM 84.9 °F 91.4 °F 73.0 °F 67% 29.99 in 10.0 mi WSW 5.8 mph - N/A   Scattered Clouds
11:53 AM 84.0 °F 91.9 °F 75.0 °F 74% 29.99 in 10.0 mi Variable 4.6 mph - 0.00 in Rain , Thunderstorm Light Thunderstorms and Rain
12:18 PM 78.8 °F - 75.2 °F 89% 30.00 in 7.0 mi ESE 10.4 mph - 0.26 in Rain , Thunderstorm Thunderstorms and Rain
3:53 PM 77.0 °F - 75.9 °F 96% 30.01 in 10.0 mi Variable 4.6 mph - 0.08 in Thunderstorm Thunderstorm
4:02 PM 75.2 °F - 73.4 °F 94% 30.01 in 4.0 mi West 13.8 mph 24.2 mph 0.08 in Rain , Thunderstorm Heavy Thunderstorms and Rain
4:14 PM 73.4 °F - 73.4 °F 100% 30.00 in 10.0 mi NW 4.6 mph - 0.18 in Rain , Thunderstorm Heavy Thunderstorms and Rain
4:22 PM 73.4 °F - 73.4 °F 100% 30.00 in 10.0 mi NNW 3.5 mph - 0.21 in Rain , Thunderstorm Thunderstorms and Rain
4:59 PM 73.4 °F - 73.4 °F 100% 29.99 in 1.0 mi North 5.8 mph - 0.08 in Rain , Thunderstorm Heavy Thunderstorms and Rain
6:30 PM 73.4 °F - 73.4 °F 100% 30.00 in 4.0 mi North 4.6 mph - 0.27 in Rain , Thunderstorm Thunderstorms and Rain
6:53 PM 73.0 °F - 73.0 °F 100% 30.00 in 4.0 mi NNW 4.6 mph - 0.30 in Rain , Thunderstorm Thunderstorms and Rain
7:53 PM 73.0 °F - 73.0 °F 100% 30.02 in 7.0 mi South 4.6 mph - 0.04 in Rain , Thunderstorm Thunderstorms and Rain
8:53 PM 73.0 °F - 72.0 °F 96% 30.04 in 10.0 mi SE 3.5 mph - 0.14 in Rain , Thunderstorm Thunderstorms and Rain
9:53 PM 73.0 °F - 73.0 °F 100% 30.02 in 10.0 mi Calm Calm - 0.06 in Rain Light Rain
10:53 PM 73.0 °F - 72.0 °F 96% 30.04 in 10.0 mi Calm Calm - 0.01 in   Partly Cloudy
11:53 PM 73.0 °F - 73.0 °F 100% 30.03 in 10.0 mi ESE 5.8 mph - 0.01 in   Scattered Clouds